Flag for French Polynesia Weather past 2 weeks in Taiohae, Marquesas Islands, French Polynesia

Now
76 °F

Mild.


Feels Like: 77 °F
Forecast: 78 / 84 °F
Wind: 2 mph from North

Location: Atuona

Current Time: Apr 18, 2015 at 12:11:21 AM

Latest Report: Apr 17, 2015 at 11:30 PM


Visibility: N/A

Pressure: 29.90 "Hg

Humidity: 78%

Dew point: 68 °F

Location of TaiohaeLocation

Historic Weather in Taiohae — Graph

°F

Taiohae temperature yesterday

Maximum temperature yesterday: 89 °F (at 1:30 PM)
Minimum temperature yesterday: 72 °F (at 4:30 AM)
Average temperature yesterday: 79 °F

Past Weeks' High & Low Weather Summary

 TemperatureHumidityPressure
High91 °F (Apr 3, 10:30 AM)95% (Apr 4, 4:30 AM)29.98 "Hg (Apr 4, 4:30 AM)
Low72 °F (Apr 17, 4:30 AM)53% (Apr 15, 11:30 AM)29.69 "Hg (Apr 6, 3:30 PM)
Average81 °F76%29.84 "Hg
* Reported Apr 2 10:30 PM — Apr 17 10:30 PM, Taiohae, Weather by CustomWeather, © 2015

Note: Actual official high and low records may vary slightly from our data, if they occured in-between our weather recording intervals... More about our weather records

Advertising

Taiohae weather history for previous 24 hours

 ConditionsComfort  
Time TempWeatherWind HumidityBarometerVisibility
10:30 PM
Fri, Apr 17
75 °FMild.2 mph79%29.90 "HgN/A
9:30 PM76 °FMild.No wind78%29.90 "HgN/A
8:30 PM76 °FMild.2 mph79%29.90 "HgN/A
7:30 PM77 °FMild.No wind79%29.88 "HgN/A
6:30 PM78 °FWarm.2 mph75%29.86 "HgN/A
4:30 PM82 °FPassing clouds.5 mph66%29.82 "Hg37 mi
3:30 PM86 °FPassing clouds.6 mph58%29.80 "Hg37 mi
2:30 PM88 °FPassing clouds.3 mph54%29.81 "Hg37 mi
1:30 PM89 °FPassing clouds.5 mph53%29.82 "Hg37 mi
12:30 PM87 °FScattered clouds.3 mph58%29.85 "Hg37 mi
11:30 AM87 °FWarm.3 mph55%29.87 "HgN/A
10:30 AM87 °FScattered clouds.3 mph57%29.90 "Hg37 mi
9:30 AM86 °FWarm.3 mph58%29.92 "HgN/A
8:30 AM83 °FWarm.2 mph66%29.92 "HgN/A
7:30 AM79 °FWarm.No wind72%29.90 "HgN/A
6:30 AM74 °FMild.2 mph81%29.88 "HgN/A
5:30 AM73 °FMild.1 mph82%29.86 "HgN/A
4:30 AM72 °FMild.2 mph82%29.84 "HgN/A
3:30 AM73 °FMild.1 mph82%29.83 "HgN/A
2:30 AM73 °FMild.1 mph82%29.84 "HgN/A
1:30 AM73 °FMild.No wind83%29.85 "HgN/A
12:30 AM74 °FMild.No wind83%29.86 "HgN/A
Weather by CustomWeather, © 2015

See weather overviewHow to use our weather pages